Regional Weather Roundup
Issued by NWS Jackson, KY

Home | Current Version | Previous Version | Text Only | Print | Product List | Glossary Off
Versions: 1 2 3 4 5 6 7 8 9 10 11 12 13 14 15 16 17 18 19 20 21 22 23 24 25 26 27 28 29 30 31 32 33 34 35 36 37 38 39 40 41 42 43 44 45 46 47 48 49 50

000
ASUS43 KJKL 010610
RWRJKL

EAST KENTUCKY HOURLY WEATHER ROUNDUP
NATIONAL WEATHER SERVICE JACKSON KY
200 AM EDT TUE SEP 01 2015

NOTE: "FAIR" INDICATES FEW OR NO CLOUDS BELOW 12,000 FEET WITH
NO SIGNIFICANT WEATHER AND/OR OBSTRUCTIONS TO VISIBILITY.

* THESE REPORTS ARE NOT UNDER NWS QUALITY CONTROL AND MAY NOT
  REPORT WEATHER SUCH AS PRECIPITATION AND FOG.

KYZ079-080-083-085-087-088-110-112-115-119-120-010700
...EASTERN KENTUCKY...

CITY           SKY/WX    TMP DP  RH WIND       PRES   REMARKS
JACKSON          N/A     72  64  76 CALM      30.15S
6HR MIN TEMP:  70; 6HR MAX TEMP:  80;

LONDON           N/A     67  62  84 CALM      30.15S
6HR MIN TEMP:  67; 6HR MAX TEMP:  79;

SOMERSET*        N/A     64  64 100 CALM      30.14F FOG
MONTICELLO*      N/A     63  63 100 CALM      30.16F FOG
6HR MIN TEMP:  63; 6HR MAX TEMP:  76;

MIDDLESBORO*     N/A     65  65  97 CALM      30.16S
6HR MIN TEMP:  65; 6HR MAX TEMP:  76;

HARLAN APT*      N/A     66  66 100 MISG      30.17
HAZARD APT*    CLOUDY    68  68 100 CALM      30.15S
BLACK MTN*       N/A     64  61  88 CALM        N/A
PIKEVILLE APT* PTCLDY    68  68 100 S3        30.15F FOG
BIG SANDY*       N/A     68  67  96 CALM      30.14F
6HR MIN TEMP:  67; 6HR MAX TEMP:  79;

MOREHEAD APT*    N/A     68  66  94 S5        30.16S FOG
$$

KYZ035-036-041-042-044-050-067-078-099-010700
...CENTRAL KENTUCKY...

CITY           SKY/WX    TMP DP  RH WIND       PRES   REMARKS
MT STERLING*     N/A     63  63 100 CALM      30.15F FOG
FLEMING/MASON* CLEAR     68  64  88 CALM      30.15R
DANVILLE*        N/A     64  63  94 CALM      30.15F
RICHMOND*        N/A     66  63  88 CALM      30.13F
LEXINGTON        N/A     69  64  84 CALM      30.14S
6HR MIN TEMP:  67; 6HR MAX TEMP:  80;

FRANKFORT        N/A     66  64  93 CALM      30.12S
6HR MIN TEMP:  66; 6HR MAX TEMP:  80;

$$

KYZ091>093-OHZ055-061-077-WVZ005-015-034-035-042-010700
...SOUTHERN OHIO/WEST VIRGINIA...

CITY           SKY/WX    TMP DP  RH WIND       PRES   REMARKS
COVINGTON        N/A     70  66  87 CALM      30.12S
COLUMBUS         N/A     72  68  87 CALM      30.10F
DAYTON           N/A     71  68  90 SW6       30.13R
WILMINGTON       N/A     68  65  90 CALM      30.12S
HUNTINGTON       N/A     67  67 100 CALM      30.12S FOG
CHARLESTON       N/A     67  66  97 CALM      30.13S
PINEVILLE*       N/A     64  64 100 MISG      30.22F FOG
BECKLEY          N/A     63  60  90 CALM      30.20F
BLUEFIELD      CLOUDY    68  60  75 CALM      30.23F
$$

VAZ002-007-008-TNZ017-027-036-066-071-010700
...SOUTHWEST VIRGINIA/EAST TENNESSEE...

CITY           SKY/WX    TMP DP  RH WIND       PRES   REMARKS
WISE*          MOCLDY    66  64  94 CALM      30.23S
JONESVILLE*      N/A     64  63  94 CALM      30.18S FOG
ABINGDON*        N/A     67  63  85 E5        30.18S
BRISTOL          N/A     65  63  93 CALM      30.15F FOG
OAK RIDGE        N/A     69  65  86 CALM      30.14S
CROSSVILLE       N/A     66  63  90 CALM      30.18S FOG
NASHVILLE        N/A     72  66  81 CALM      30.11S
$$

...KEY TO REMARKS...
VSB - VISIBILITY IN MILES
WCI - WIND CHILL INDEX
HX  - HEAT INDEX

$$



USA.gov is the U.S. government's official web portal to all federal, state and local government web resources and services.